#timestamp,LO_Frequency,Hit,StdDev 
1582959656.0,286046980.6,P
1582959675.8,286046980.6,P
1582959695.7,286046983.3,P
1582959715.5,286046983.5,Y
1582959735.3,286046998.1,P
1582959755.2,286046998.3,N
1582959775.0,286046999.0,N
1582959775.9,286046999.0,N
1582959795.8,286046998.8,N
1582959815.6,286046998.4,N
1582959835.4,286046999.1,N
1582959855.3,286046999.5,N
1582959875.1,286046997.1,N
1582959895.8,286046997.5,N
1582959915.7,286046998.0,N
1582959935.5,286046997.5,N
1582959955.4,286046995.1,N
1582959975.2,286046995.4,N
1582959995.0,286046995.1,N
1582959995.9,286046995.1,N
1582960015.8,286046996.1,N
1582960035.6,286046993.3,N
1582960055.4,286046993.9,N
1582960075.3,286046991.7,N
1582960095.1,286046991.7,N
1582960115.9,286046992.3,N
1582960135.7,286046991.9,N
1582960155.5,286046990.3,N
1582960175.4,286046990.3,N
1582960195.2,286046991.3,N
1582960215.0,286046990.8,N
1582960215.9,286046990.8,N
1582960235.8,286046991.2,N
1582960255.6,286046989.0,N
1582960275.5,286046988.9,Y
1582960295.3,286046996.2,P
1582960315.1,286046996.2,P
1582960335.9,286046995.6,P
1582960355.7,286046993.7,Y
1582960375.5,286046998.3,P
1582960395.4,286046999.1,N
1582960415.2,286046998.4,N
1582960435.1,286046998.2,N
1582960466.0,286047000.9,E
1582960475.0,286047000.5,N
1582960475.9,286047000.5,P
1582960495.8,286047000.3,P
1582960515.6,286047000.8,Y
1582960535.4,286046997.2,P
1582960555.3,286046997.8,N
1582960575.1,286046997.2,N
1582960595.8,286046997.3,N
1582960615.7,286046997.6,N
1582960635.5,286046995.1,Y
1582960655.4,286046999.1,P
1582960675.2,286046999.4,N
1582960695.0,286046998.8,N
1582960695.9,286046998.8,N
1582960715.8,286046998.9,N
1582960735.6,286046999.4,N
1582960755.5,286046999.3,N
1582960775.3,286046996.9,Y
1582960795.1,286047000.8,P
1582960815.9,286047001.2,N
1582960835.7,286047000.6,N
1582960855.5,286046998.1,N
1582960905.4,286046999.3,E
1582960915.3,286046998.3,N
1582960935.2,286047001.1,P
1582960955.0,286046998.1,N
1582960955.9,286046998.1,N
1582960975.7,286046998.3,N
1582960995.6,286047000.8,N
1582961015.4,286046998.5,N
1582961035.3,286046998.5,N
1582961055.1,286046998.9,N
1582961056.0,286046998.9,N
1582961075.8,286046998.5,N
1582961095.7,286046998.4,N
1582961115.5,286046998.2,N
1582961135.3,286046998.1,N
1582961155.2,286046999.0,N
1582961175.0,286046999.0,N
1582961175.9,286046999.0,N
1582961195.8,286046998.5,N
1582961215.6,286046998.2,N
1582961235.4,286046998.7,N
1582961255.3,286046998.9,N
1582961275.1,286046998.8,N
1582961295.8,286046999.0,N
1582961315.7,286046999.6,N
1582961335.5,286046999.5,N
1582961355.4,286046996.6,Y
1582961375.2,286047001.2,P
1582961395.0,286046998.4,N
1582961395.9,286046998.4,N
1582961415.8,286046998.2,N
1582961435.6,286046998.9,N
1582961455.5,286046998.9,N
1582961475.3,286046999.1,N
1582961495.1,286046997.3,Y
1582961515.9,286047000.9,P
1582961535.7,286047001.2,N
1582961555.5,286047001.0,N
1582961575.4,286047001.1,N
1582961595.2,286047001.0,N
1582961615.1,286047000.7,N
1582961616.0,286047000.7,N
1582961635.8,286047000.9,N
1582961655.6,286046998.2,N
1582961675.5,286046998.3,N
1582961695.3,286046998.4,N
1582961715.1,286047001.1,N
1582961735.9,286046998.3,N
1582961755.7,286046998.4,N
1582961775.6,286047001.0,N
1582961795.4,286046998.1,N
1582961815.2,286046998.1,N
1582961835.1,286046998.4,N
1582961836.0,286046998.4,N
1582961855.8,286046998.4,N
1582961875.7,286046998.7,N
1582961895.5,286047001.0,N
1582961915.3,286047001.1,N
1582961935.2,286046998.2,N
1582961955.0,286046998.1,N
1582961955.9,286046998.1,N
1582961975.8,286047001.2,N
1582961995.6,286046998.8,N
1582962015.4,286046999.6,N
1582962035.3,286046999.4,N
1582962055.1,286046999.4,N
1582962075.8,286046998.6,N
1582962095.7,286046998.8,N
1582962115.5,286046998.8,N
1582962135.4,286046998.3,N
1582962155.2,286046999.5,N
1582962175.0,286046998.8,N
1582962175.9,286046998.8,N
1582962195.8,286046998.3,N
1582962215.6,286046998.4,N
1582962235.5,286046998.3,N
1582962255.3,286046999.5,N
1582962275.1,286046997.1,Y
1582962295.9,286046999.1,P
1582962315.7,286046999.4,P
1582962335.6,286046996.6,P
1582962355.4,286046996.7,N
1582962375.2,286046998.0,N
1582962395.1,286046999.6,N
1582962396